Terminal Aerodrome Forecast
Issued by NWS Los Angeles, CA

Home | Current Version | Previous Version | Text Only | Print | Product List | Glossary On
Versions: 1 2 3 4 5 6 7 8 9 10 11 12 13 14 15 16 17 18 19 20 21
000
FTUS46 KLOX 210800 AAA
TAFSMX
TAF AMD
KSMX 210851Z 2109/2206 34008KT P6SM BKN200
     FM211200 01006KT P6SM SCT015 BKN025
     FM211700 33010KT P6SM SCT040
     FM220300 VRB03KT P6SM SCT100=

USA.gov is the U.S. government's official web portal to all federal, state and local government web resources and services.